Simultaneous Nadir Overpasses (SNOs) Predictions

Prediction of SNOs between AQUA and METOP-B Satellite Orbit:

Table of predicted SNOs for the next 14.0 days since TLE Epoch: 10/1/2022
Index Date (AQUA) Time (AQUA) Lat,Lon (AQUA) SZA (AQUA ) Date (METOP-B) Time (METOP-B) Lat,Lon (METOP-B) SZA (METOP-B ) Distance(km) Time Diff (sec)
1 10/01/2022 17:03:06 74.02, -80.82 77.32 10/01/2022 17:02:14 74.05, -80.82 77.35 3.32 52
2 10/01/2022 17:52:33 -74.12, 86.60 102.57 10/01/2022 17:52:55 -74.10, 86.62 102.59 3.00 22
3 10/04/2022 11:47:04 -74.03, 178.18 101.60 10/04/2022 11:45:59 -74.01, 178.15 101.62 2.35 65
4 10/04/2022 12:36:32 74.09, -14.32 78.48 10/04/2022 12:36:37 74.09, -14.31 78.48 0.28 5
5 10/04/2022 13:26:02 -74.35, 152.73 101.25 10/04/2022 13:27:13 -74.38, 153.76 101.23 31.08 71
6 10/07/2022 06:30:58 73.73, 77.87 79.16 10/07/2022 06:29:48 73.70, 76.48 79.15 43.70 70
7 10/07/2022 07:20:30 -74.09,-115.29 100.46 10/07/2022 07:20:22 -74.10,-115.23 100.46 1.98 8
8 10/07/2022 08:09:58 74.15, 52.20 79.62 10/07/2022 08:11:01 74.12, 52.17 79.59 3.48 63
9 10/10/2022 02:04:29 74.10, 143.72 80.60 10/10/2022 02:04:05 74.07, 143.78 80.58 3.34 24
10 10/10/2022 02:53:55 -74.14, -48.74 99.34 10/10/2022 02:54:46 -74.13, -48.75 99.36 1.37 51
11 10/12/2022 20:48:25 -74.07, 42.82 98.39 10/12/2022 20:47:50 -74.07, 42.85 98.38 1.16 35
12 10/12/2022 21:37:53 74.14,-149.71 81.70 10/12/2022 21:38:28 74.14,-149.64 81.71 2.00 35



Historial Predications of SNOs between AQUA and METOP-B
